Showing default

LEMUR 2 THERMORAPTOR, 63354

Orbit data source: Space-Track

LEMUR 2 THERMORAPTOR, 63354 is a payload satellite owned by OroraTech (US) in SSO that was launched on Wed, 26 Mar 2025 UTC via an ELECTRON launch vehicle from the Rocket Lab Launch Complex (RLLC). Payload-class satellites include a variety of spacecraft equipped with specific instruments for various scientific and technological missions. These include communications satellites like Starlink; space stations such as the ISS; scientific satellites like the Hubble; Earth observation satellites from companies like Planet Labs, Umbra, and HawkEye 360; GPS; miniature CubeSats for education and research; and military/defense satellites.

Loading next visibility...
Identifier
63354, 2025-061D
Orbit
SSO
Country
Flag of USUS
Related business
Manufacturer
Spire/Glasgow
Mission
Operational Commercial Imaging
Bus & Motor
CUBESAT 6U, Unknown motor
Mass
~15 kg wet, ~15 kg dry
Launch date (UTC)
2025-03-26 (7 months ago)
Launch vehicle
ELECTRON
Launch site
Rocket Lab Launch Complex (RLLC)
Object type
Payload
Rocket body
Debris
Shape & HBR
Box + 2 Pan, 14.5 m
Radar Cross Section
0.065 m², Medium (>0.1 m² and < 1m²)

Expand to show TLE details & history
Last TLE update: 16 hours ago

TLE from 16 hours ago
0 LEMUR 2 THERMORAPTOR
1 63354U 25061D   25309.67355785  .00006003  00000-0  35471-3 0  9992
2 63354  97.5454 282.7108 0018505 310.7877  49.1748 15.11724178 33812
Epoch: 2025-11-05T16:09Z
TLE epoch observation values (Epoch: 2025-11-05T16:09:55.398Z)
Latitude
0.00009°
Longitude
-4.91289°
Altitude
525.67 km
Speed
7.605 km/s
True Right ascension
18h 50m 50s
True Declination
0° 00' 00"
Sunlit
Object was in daylight at epoch
Visualization orbit readout
Latitude
Unknown
Longitude
Unknown
Altitude
Unknown
Speed
Unknown
Apparent Right ascension
Unknown
Apparent Declination
Unknown
Sunlit
N/A
Visualization observer readout
Local Sidereal Time
04:02:20
Azimuth
Unknown
Elevation
Unknown
Doppler factor
Unknown
Orbital elements
Apogee altitude
540.704 km
Perigee altitude
515.145 km
Semi-major axis
6,906.061 km
Eccentricity
0.00185
Inclination
97.5454°
RAAN
282.7108°
Arg. of periapsis
310.7877°
True anomaly
49.3355°
Mean anomaly
49.1748°
Eccentric anomaly
49.25513°
Mean motion
3.78179 °/min
Orbital period
95.19 mins
BSTAR
0.00035471
Loading maneuver chart data...
Computing Atmospheric mass density...
Loading historical data...
Loading historical data...
Loading historical data...
Loading historical data...
Loading historical data...
Loading historical data...
Loading historical data...

Documentation

Showing up to 5 results
|